DW3478 Weather Reports


Display with metric or nautical units.
time (UTC)temp
F
wind
direction
speed
MPH
gust
MPH
rain 1hr
in
rain 24hr
in
rain mn
in
humidity
%
barometer
mb
20260505051805 60 5 1.0 2.0 0.00 0.00 0.00 94 1011.4
20260505051305 60 5 0.0 0.0 0.00 0.00 0.00 94 1011.5
20260505050805 60 5 0.0 0.0 0.00 0.00 0.00 94 1011.7
20260505041305 60 329 0.0 1.0 0.00 0.00 0.00 94 1012.0
20260505040304 60 329 1.0 2.0 0.00 0.00 0.00 94 1012.1
20260505035805 60 329 0.0 1.0 0.00 0.00 0.00 94 1012.1
20260505035305 60 329 0.0 0.0 0.00 0.00 0.00 94 1012.2
20260505034305 60 329 0.0 0.0 0.00 0.00 0.00 94 1012.2
20260505033805 60 329 0.0 0.0 0.00 0.00 0.00 94 1012.2
20260505031805 60 329 0.0 1.0 0.00 0.00 0.00 94 1012.1
20260505031305 60 329 0.0 0.0 0.00 0.00 0.00 94 1012.1
20260505030805 60 329 0.0 1.0 0.00 0.00 0.00 93 1012.0
20260505030304 60 329 1.0 1.0 0.00 0.00 0.00 93 1012.1
20260505025805 60 329 1.0 2.0 0.00 0.00 0.00 93 1012.0
20260505025305 60 329 1.0 1.0 0.00 0.00 0.00 93 1012.0
20260505024805 60 327 1.0 1.0 0.00 0.00 0.00 93 1012.0
20260505023806 61 340 0.0 0.0 0.00 0.00 0.00 93 1012.2
20260505023304 61 340 1.0 1.0 0.00 0.00 0.00 93 1012.2
20260505022804 61 340 0.0 1.0 0.00 0.00 0.00 93 1012.3
20260505022305 61 340 1.0 1.0 0.00 0.00 0.00 93 1012.3
20260505021304 61 340 0.0 1.0 0.00 0.00 0.00 93 1012.5
20260505020305 61 340 0.0 0.0 0.00 0.00 0.00 93 1012.6
20260505015806 61 342 0.0 0.0 0.00 0.00 0.00 93 1012.7
20260505014305 61 355 0.0 0.0 0.00 0.00 0.00 93 1012.9
20260505013304 61 16 0.0 0.0 0.00 0.00 0.00 93 1012.9
20260505012805 61 19 0.0 0.0 0.00 0.00 0.00 93 1013.2
20260505012305 61 19 0.0 0.0 0.00 0.00 0.00 93 1013.1
20260505011805 61 19 0.0 0.0 0.00 0.00 0.00 93 1013.3
20260505010305 61 19 1.0 2.0 0.00 0.00 0.00 93 1013.3
20260505005804 61 329 1.0 2.0 0.00 0.00 0.00 93 1013.3
20260505004805 61 329 1.0 2.0 0.00 0.00 0.00 93 1013.5
20260505004305 61 329 0.0 1.0 0.00 0.00 0.00 93 1013.5
20260505003806 61 329 1.0 1.0 0.00 0.00 0.00 93 1013.5
20260505001805 61 329 1.0 2.0 0.00 0.00 0.00 93 1013.6
20260505001305 61 349 0.0 1.0 0.00 0.00 0.00 93 1013.4
20260505000305 61 0 0.0 1.0 0.00 0.00 0.00 93 1013.7
20260504235305 61 30 1.0 3.0 0.00 0.00 0.00 92 1013.6
20260504234805 61 48 1.0 3.0 0.00 0.00 0.00 93 1013.7
20260504233305 61 0 1.0 2.0 0.00 0.00 0.00 92 1013.5
20260504232305 61 0 0.0 1.0 0.00 0.00 0.00 92 1013.5
20260504231805 61 0 0.0 1.0 0.00 0.00 0.00 92 1013.7
20260504225804 62 36 0.0 1.0 0.00 0.00 0.00 92 1013.7
20260504225306 62 36 0.0 1.0 0.00 0.00 0.00 92 1013.7
20260504224805 62 36 1.0 1.0 0.00 0.00 0.00 92 1013.5
20260504224304 62 36 0.0 1.0 0.00 0.00 0.00 91 1013.6
20260504223805 62 36 0.0 0.0 0.00 0.00 0.00 91 1013.7
20260504223305 62 36 0.0 2.0 0.00 0.00 0.00 91 1013.8
20260504222805 62 36 1.0 2.0 0.00 0.00 0.00 91 1013.4
20260504222305 62 267 0.0 2.0 0.00 0.00 0.00 91 1013.5
20260504221305 62 267 0.0 1.0 0.00 0.00 0.00 91 1013.6
20260504215305 62 267 0.0 1.0 0.00 0.00 0.00 91 1013.7
20260504213304 63 267 0.0 1.0 0.00 0.00 0.00 91 1013.4
20260504212805 63 267 0.0 1.0 0.00 0.00 0.00 91 1013.4
20260504211304 63 267 0.0 0.0 0.00 0.00 0.00 90 1013.3
20260504210804 63 267 0.0 0.0 0.00 0.00 0.00 90 1013.4
20260504210304 63 267 0.0 0.0 0.00 0.00 0.00 90 1013.3
20260504205804 63 267 0.0 1.0 0.00 0.00 0.00 90 1013.3
20260504205304 63 267 0.0 1.0 0.00 0.00 0.00 90 1013.1
20260504204805 63 267 0.0 1.0 0.00 0.00 0.00 90 1013.0
20260504203805 63 267 0.0 0.0 0.00 0.00 0.00 90 1013.1
20260504200805 64 316 0.0 2.0 0.00 0.00 0.00 89 1012.8
20260504200304 64 273 0.0 1.0 0.00 0.00 0.00 89 1012.5
20260504194804 64 273 0.0 0.0 0.00 0.00 0.00 90 1012.4
20260504194305 64 273 0.0 0.0 0.00 0.00 0.00 89 1012.5
20260504193304 64 273 0.0 1.0 0.00 0.00 0.00 90 1012.4
20260504192805 64 273 0.0 1.0 0.00 0.00 0.00 89 1012.8
20260504190304 69 0 0.0 0.0 0.00 0.00 0.00 83 1012.4
20260504185805 69 0 0.0 0.0 0.00 0.00 0.00 83 1012.7
20260504185305 69 0 0.0 0.0 0.00 0.00 0.00 83 1012.8
20260504184804 69 0 0.0 0.0 0.00 0.00 0.00 83 1012.8
20260504182304 69 0 0.0 0.0 0.00 0.00 0.00 83 1012.9
20260504181804 69 0 0.0 0.0 0.00 0.00 0.00 83 1012.6
20260504181305 69 0 0.0 0.0 0.00 0.00 0.00 83 1012.5
20260504180805 69 0 0.0 0.0 0.00 0.00 0.00 83 1012.7
20260504180304 69 0 0.0 0.0 0.00 0.00 0.00 83 1012.5
20260504175805 69 0 0.0 0.0 0.00 0.00 0.00 83 1012.8
20260504175305 69 0 0.0 0.0 0.00 0.00 0.00 83 1012.7
20260504174304 69 0 0.0 0.0 0.00 0.00 0.00 83 1012.6
20260504173805 69 0 0.0 0.0 0.00 0.00 0.00 83 1012.6
20260504173305 69 0 0.0 0.0 0.00 0.00 0.00 83 1012.7
20260504172804 69 0 0.0 0.0 0.00 0.00 0.00 83 1012.7
20260504172305 69 0 0.0 0.0 0.00 0.00 0.00 83 1012.8
20260504160304 69 0 0.0 0.0 0.00 0.00 0.00 83 1012.9
20260504141305 70 115 5.0 10.0 0.00 0.00 0.00 86 1013.2
20260504140806 69 124 4.0 8.0 0.00 0.00 0.00 87 1013.2
20260504140305 68 121 5.0 10.0 0.00 0.00 0.00 85 1013.1
20260504130806 65 124 2.0 3.0 0.00 0.00 0.00 92 1013.1
20260504130305 64 131 2.0 5.0 0.00 0.00 0.00 91 1013.2
20260504120305 66 0 0.0 0.0 0.00 0.00 0.00 93 1013.0
20260504110305 66 0 0.0 0.0 0.00 0.00 0.00 93 1013.4
20260504100305 66 163 2.0 7.0 0.00 0.00 0.00 90 1013.1
20260504081805 62 105 2.0 3.0 0.00 0.01 0.00 96 1012.6
20260504070305 61 36 1.0 3.0 0.00 0.01 0.00 96 1012.3